STARLINK-4083, 52832

Orbit data source: Space-Track

STARLINK-4083, 52832 is a payload satellite owned by SpaceX/Seattle (US) in LEO that was launched on Fri, 17 Jun 2022 UTC via an FALCON 9 launch vehicle from the Air Force Eastern Test Range (AFETR). Payload-class satellites include a variety of spacecraft equipped with specific instruments for various scientific and technological missions. These include communications satellites like Starlink; space stations such as the ISS; scientific satellites like the Hubble; Earth observation satellites from companies like Planet Labs, Umbra, and HawkEye 360; GPS; miniature CubeSats for education and research; and military/defense satellites.

Loading next visibility...
Identifier
52832, 2022-062C
Orbit
LEO
Country
Flag of USUS
Related business
Manufacturer
SpaceX/Seattle
Mission
Operational Commercial Communications
Bus & Motor
STARLINK, Unknown motor
Mass
297 kg wet, ~275 kg dry
Launch date (UTC)
2022-06-17 (4 years ago)
Launch vehicle
FALCON 9
Launch site
Air Force Eastern Test Range (AFETR)
Object type
Payload
Rocket body
Debris
Shape & HBR
Box + 1 Pan, 10.1 m
Radar Cross Section
13.562 m², Large (>1 m²)

Expand to show TLE details & history
Last TLE update: 3 days ago

TLE from 3 days ago
0 STARLINK-4083
1 52832U 22062C   26170.78189880 -.00000158  00000-0  81597-5 0  9997
2 52832  53.1604 295.6954 0001167  88.3073 271.8052 15.08835063221194
Epoch: 2026-06-19T18:45Z
TLE epoch observation values (Epoch: 2026-06-19T18:45:56.056Z)
Latitude
-0.00002°
Longitude
106.20588°
Altitude
540.625 km
Speed
7.593 km/s
True Right ascension
19h 42m 46s
True Declination
0° 00' 00"
Sunlit
Object was in full shadow at epoch
Visualization orbit readout
Latitude
Unknown
Longitude
Unknown
Altitude
Unknown
Speed
Unknown
Apparent Right ascension
Unknown
Apparent Declination
Unknown
Sunlit
N/A
Visualization observer readout
Local Sidereal Time
21:34:51
Azimuth
Unknown
Elevation
Unknown
Doppler factor
Unknown
Orbital elements
Apogee altitude
540.82 km
Perigee altitude
539.205 km
Semi-major axis
6,918.15 km
Eccentricity
0.00012
Inclination
53.1604°
RAAN
295.6954°
Arg. of periapsis
88.3073°
True anomaly
271.79183°
Mean anomaly
271.8052°
Eccentric anomaly
271.79852°
Mean motion
3.77188 °/min
Orbital period
95.44 mins
BSTAR
0.0000081597
Loading maneuver chart data...
Computing Atmospheric mass density...
Loading historical data...
Loading historical data...
Loading historical data...
Loading historical data...
Loading historical data...
Loading historical data...
Loading historical data...

Documentation

Showing up to 5 results
|